Location: Bas-Clignon
(44.2000°N, 6.6333°E)
Time: 12:44:55
(UTC+00:00)

Cosmos 2322 Rocket - Pass Details

Date: 03 February 2023
Orbit: 832 x 851 km, 71.0° (Epoch: 20 March)

Event Time Altitude Azimuth Distance (km) Brightness Sun altitude
Rises 18:13:33 0° 211° (SSW) 3,363 5.9 -16.0°
Reaches altitude 10° 18:16:00 10° 214° (SW) 2,433 5.2 -16.4°
Maximum altitude 18:21:33 67° 297° (WNW) 900 2.5 -17.4°
Drops below altitude 10° 18:27:09 10° 21° (NNE) 2,452 4.4 -18.4°
Enters shadow 18:28:12 - 22° (NNE) 2,853 4.7 -18.6°
